Location: Meinert
(37.9441°N, 122.0275°W)
Time: 19:54:06
(UTC+00:00)

Cosmos 1656 Rocket - Pass Details

Date: 18 April 2024
Orbit: 796 x 844 km, 71.1° (Epoch: 22 May)

Event Time Altitude Azimuth Distance (km) Brightness Sun altitude
Rises 12:50:20 0° 329° (NNW) 3,304 6.7 -7.9°
Reaches altitude 10° 12:52:51 10° 323° (NW) 2,370 5.9 -7.4°
Maximum altitude 12:57:52 40° 255° (WSW) 1,156 4.0 -6.5°
Drops below altitude 10° 13:02:53 10° 186° (S) 2,368 5.8 -5.5°
Sets 13:05:25 0° 179° (S) 3,300 6.6 -5.1°
